TimePST,TemperatureF,Dew PointF,Humidity,Sea Level PressureIn,VisibilityMPH,Wind Direction,Wind SpeedMPH,Gust SpeedMPH,PrecipitationIn,Events,Conditions,WindDirDegrees,DateUTC
12:15 AM,48.2,48.2,100,30.21,5.0,Calm,Calm,-,N/A,Rain,Light Rain,0,2013-03-02 08:15:00
12:55 AM,48.2,48.2,100,30.21,4.0,Calm,Calm,-,N/A,Rain,Light Rain,0,2013-03-02 08:55:00
1:15 AM,48.2,48.2,100,30.20,5.0,South,4.6,-,N/A,Rain,Light Rain,190,2013-03-02 09:15:00
1:35 AM,48.2,48.2,100,30.20,7.0,SSW,3.5,-,N/A,Rain,Light Rain,200,2013-03-02 09:35:00
1:55 AM,48.2,48.2,100,30.20,8.0,Calm,Calm,-,N/A,Rain,Light Rain,0,2013-03-02 09:55:00
2:15 AM,48.2,48.2,100,30.20,6.0,North,-9999.0,-,N/A,Rain,Light Rain,0,2013-03-02 10:15:00
2:35 AM,48.2,48.2,100,30.18,5.0,South,4.6,-,N/A,Rain,Light Rain,180,2013-03-02 10:35:00
2:55 AM,48.2,48.2,100,30.17,9.0,South,5.8,-,N/A,,Scattered Clouds,180,2013-03-02 10:55:00
3:15 AM,48.2,48.2,100,30.17,10.0,South,5.8,-,N/A,,Mostly Cloudy,180,2013-03-02 11:15:00
3:35 AM,48.2,48.2,100,30.16,10.0,South,8.1,-,N/A,,Overcast,190,2013-03-02 11:35:00
3:55 AM,48.2,48.2,100,30.15,10.0,SSW,9.2,-,N/A,,Overcast,200,2013-03-02 11:55:00
4:15 AM,48.2,48.2,100,30.14,10.0,South,5.8,-,N/A,,Overcast,180,2013-03-02 12:15:00
4:35 AM,50.0,48.2,94,30.14,10.0,South,10.4,-,N/A,,Overcast,190,2013-03-02 12:35:00
4:55 AM,50.0,48.2,94,30.14,10.0,SSW,10.4,-,N/A,,Overcast,200,2013-03-02 12:55:00
5:15 AM,50.0,48.2,94,30.14,10.0,South,9.2,-,N/A,Rain,Light Rain,190,2013-03-02 13:15:00
5:35 AM,48.2,48.2,100,30.13,10.0,South,9.2,-,N/A,,Overcast,190,2013-03-02 13:35:00
5:55 AM,48.2,48.2,100,30.12,10.0,South,10.4,-,N/A,Rain,Light Rain,190,2013-03-02 13:55:00
6:15 AM,48.2,48.2,100,30.11,10.0,South,8.1,-,N/A,,Overcast,190,2013-03-02 14:15:00
6:35 AM,48.2,48.2,100,30.11,10.0,South,8.1,-,N/A,,Mostly Cloudy,180,2013-03-02 14:35:00
6:55 AM,48.2,48.2,100,30.10,10.0,South,6.9,-,N/A,,Mostly Cloudy,190,2013-03-02 14:55:00
7:15 AM,48.2,48.2,100,30.09,10.0,South,8.1,-,N/A,,Mostly Cloudy,190,2013-03-02 15:15:00
7:35 AM,48.2,48.2,100,30.09,10.0,South,9.2,-,N/A,,Mostly Cloudy,190,2013-03-02 15:35:00
7:55 AM,48.2,48.2,100,30.09,10.0,SSW,8.1,-,N/A,,Overcast,200,2013-03-02 15:55:00
8:15 AM,48.2,48.2,100,30.08,10.0,South,8.1,-,N/A,,Overcast,180,2013-03-02 16:15:00
8:35 AM,48.2,46.4,93,30.08,10.0,South,6.9,-,N/A,,Overcast,190,2013-03-02 16:35:00
8:55 AM,50.0,48.2,94,30.07,10.0,South,8.1,-,N/A,,Mostly Cloudy,190,2013-03-02 16:55:00
9:15 AM,50.0,48.2,94,30.07,10.0,South,8.1,-,N/A,,Scattered Clouds,190,2013-03-02 17:15:00
9:35 AM,50.0,46.4,87,30.06,10.0,South,8.1,-,N/A,,Scattered Clouds,190,2013-03-02 17:35:00
9:55 AM,50.0,48.2,94,30.05,10.0,South,10.4,16.1,N/A,,Scattered Clouds,190,2013-03-02 17:55:00
10:15 AM,50.0,46.4,87,30.05,10.0,South,11.5,-,N/A,,Mostly Cloudy,190,2013-03-02 18:15:00
10:35 AM,50.0,46.4,87,30.05,10.0,South,10.4,-,N/A,,Mostly Cloudy,190,2013-03-02 18:35:00
10:55 AM,50.0,46.4,87,30.05,5.0,South,9.2,-,N/A,Rain,Light Rain,190,2013-03-02 18:55:00
11:15 AM,50.0,48.2,94,30.04,4.0,South,9.2,-,N/A,Rain,Light Rain,190,2013-03-02 19:15:00
11:35 AM,50.0,48.2,94,30.03,8.0,South,10.4,-,N/A,,Partly Cloudy,180,2013-03-02 19:35:00
11:55 AM,51.8,48.2,88,30.03,10.0,South,10.4,-,N/A,,Scattered Clouds,190,2013-03-02 19:55:00
12:15 PM,51.8,48.2,88,30.02,10.0,South,9.2,-,N/A,,Scattered Clouds,190,2013-03-02 20:15:00
12:55 PM,50.0,48.2,94,30.01,10.0,SSW,9.2,-,N/A,,Overcast,210,2013-03-02 20:55:00
1:15 PM,50.0,46.4,87,30.01,10.0,SW,9.2,19.6,N/A,,Overcast,220,2013-03-02 21:15:00
1:35 PM,50.0,46.4,87,30.00,8.0,SSW,12.7,18.4,N/A,Rain,Light Rain,200,2013-03-02 21:35:00
1:55 PM,48.2,44.6,87,30.02,3.0,WSW,10.4,-,N/A,Rain,Rain,250,2013-03-02 21:55:00
2:15 PM,46.4,44.6,93,30.03,2.0,West,4.6,-,0.01,Rain,Rain,280,2013-03-02 22:15:00
2:35 PM,46.4,41.0,81,30.04,5.0,SW,6.9,-,0.01,Rain,Light Rain,230,2013-03-02 22:35:00
2:55 PM,44.6,41.0,87,30.03,5.0,WSW,8.1,-,0.01,Rain,Light Rain,240,2013-03-02 22:55:00
3:15 PM,44.6,42.8,93,30.04,9.0,SSW,6.9,-,N/A,Rain,Light Rain,210,2013-03-02 23:15:00
3:35 PM,46.4,42.8,87,30.04,10.0,SSW,6.9,-,N/A,Rain,Light Rain,200,2013-03-02 23:35:00
3:55 PM,46.4,42.8,87,30.04,10.0,South,3.5,-,N/A,,Clear,180,2013-03-02 23:55:00
4:15 PM,44.6,41.0,87,30.04,10.0,SSW,8.1,-,N/A,,Clear,200,2013-03-03 00:15:00
4:35 PM,44.6,41.0,87,30.05,10.0,SW,8.1,-,N/A,,Clear,220,2013-03-03 00:35:00
5:15 PM,46.4,41.0,81,30.05,10.0,SSW,3.5,-,N/A,,Clear,210,2013-03-03 01:15:00
5:35 PM,46.4,39.2,76,30.06,10.0,WSW,6.9,-,N/A,,Mostly Cloudy,250,2013-03-03 01:35:00
5:55 PM,46.4,37.4,71,30.07,10.0,SW,5.8,-,N/A,,Overcast,230,2013-03-03 01:55:00
6:15 PM,46.4,37.4,71,30.07,10.0,SW,5.8,-,N/A,,Overcast,230,2013-03-03 02:15:00
6:35 PM,44.6,37.4,76,30.08,10.0,SW,6.9,-,N/A,,Scattered Clouds,230,2013-03-03 02:35:00
6:55 PM,44.6,37.4,76,30.08,10.0,SW,5.8,-,N/A,,Clear,220,2013-03-03 02:55:00
7:15 PM,44.6,37.4,76,30.09,10.0,SSW,3.5,-,N/A,,Clear,200,2013-03-03 03:15:00
7:35 PM,44.6,37.4,76,30.10,10.0,Calm,Calm,-,N/A,,Clear,0,2013-03-03 03:35:00
7:55 PM,42.8,35.6,76,30.11,10.0,SSW,3.5,-,N/A,,Partly Cloudy,200,2013-03-03 03:55:00
8:15 PM,42.8,35.6,76,30.11,10.0,SSW,6.9,-,N/A,,Mostly Cloudy,210,2013-03-03 04:15:00
8:35 PM,42.8,35.6,76,30.13,10.0,South,3.5,-,N/A,,Scattered Clouds,190,2013-03-03 04:35:00
8:55 PM,42.8,35.6,76,30.14,10.0,NW,6.9,-,N/A,,Mostly Cloudy,310,2013-03-03 04:55:00
9:15 PM,41.0,37.4,87,30.14,10.0,WNW,6.9,-,N/A,,Overcast,300,2013-03-03 05:15:00
9:35 PM,41.0,37.4,87,30.15,10.0,NW,4.6,-,N/A,,Mostly Cloudy,310,2013-03-03 05:35:00
9:55 PM,41.0,37.4,87,30.14,10.0,West,4.6,-,N/A,,Partly Cloudy,260,2013-03-03 05:55:00
10:15 PM,39.2,37.4,93,30.15,10.0,Calm,Calm,-,N/A,,Clear,0,2013-03-03 06:15:00
11:15 PM,37.4,35.6,93,30.14,10.0,SSW,4.6,-,N/A,,Clear,200,2013-03-03 07:15:00
11:35 PM,37.4,35.6,93,30.14,10.0,SSW,6.9,-,N/A,,Clear,210,2013-03-03 07:35:00
11:55 PM,37.4,35.6,93,30.15,10.0,SSW,6.9,-,N/A,,Clear,210,2013-03-03 07:55:00